Regional Weather Roundup
Issued by NWS Charleston, SC

Current Version | Previous Version | Graphics & Text | Print | Product List | Glossary On
Versions: 1 2 3 4 5 6 7 8 9 10 11 12 13 14 15 16 17 18 19 20 21 22 23 24 25 26 27 28 29 30 31 32 33 34 35 36 37 38 39 40 41 42 43 44 45 46 47 48 49 50
000 ASUS42 KCHS 302325 RWRCHS REGIONAL WEATHER ROUNDUP NATIONAL WEATHER SERVICE CHARLESTON SC 700 PM EDT SAT AUG 30 2014 NOTE: "FAIR" INDICATES FEW OR NO CLOUDS BELOW 12,000 FEET WITH NO SIGNIFICANT WEATHER AND/OR OBSTRUCTIONS TO VISIBILITY. NOT ALL STATIONS ARE QUALITY CONTROLLED BY THE NATIONAL WEATHER SERVICE. USE DATA WITH CAUTION...ESPECIALLY DEWPOINT OBSERVATIONS. SCZ027-030-031-034>040-042>050-310000- ...SOUTH CAROLINA... CITY SKY/WX TMP DP RH WIND PRES REMARKS N CHARLESTON PTCLDY 86 72 62 SE14 30.11S HX 92 WATERFRONT PRK N/A 86 N/A N/A NE29 N/A FORT JOHNSON NOT AVBL MOUNT PLEASANT FAIR 82 75 78 E3 30.11F JOHNS ISLAND CLEAR 82 77 83 E9 30.11S HX 91 PINOPOLIS N/A 91 72 52 SE3 30.02F HX 98 MONCKS CORNER N/A 84 75 74 S6 30.11R HX 92 SUMMERVILLE FAIR 86 72 62 SE3 30.11S HX 92 BEAUFORT MCAS CLEAR 85 74 69 S7 30.09F HX 92 BEAUFORT ARPT FAIR 82 75 78 SE6 30.09S HILTON HEAD IS PTCLDY 84 75 74 E7 30.10F HX 92 GEORGETOWN NOT AVBL WALTERBORO PTCLDY 86 66 51 SE7 30.11R ORANGEBURG CLEAR 88 68 51 SE8 30.09R HX 91 BARNWELL MOCLDY 88 72 58 SE13 30.08S HX 94 AIKEN CLOUDY 90 70 51 E6 30.11S HX 95 MANNING FAIR 86 73 66 CALM 30.10S HX 93 KINGSTREE NOT AVBL COLUMBIA MOSUNNY 91 61 36 E9 30.07S HX 91 SUMTER CLEAR 89 68 49 S8 30.08S HX 93 FLORENCE CLEAR 88 69 53 S10 30.10S HX 92 MYRTLE BEACH PTCLDY 84 73 70 S12 30.13S HX 91 N MYRTLE BEACH CLEAR 84 73 69 SE8 30.12F HX 90 $$ GAZ063-065-086>088-099>101-113>116-118-119-134-136>141-150-310000- ...GEORGIA... CITY SKY/WX TMP DP RH WIND PRES REMARKS SAVANNAH ARPT PTCLDY 86 73 65 E14 30.09S HX 93 HUNTER AAF CLEAR 85 75 71 E9 30.07S HX 93 FORT STEWART PTSUNNY 87 73 61 SE10 30.07S HX 94 STATESBORO NOT AVBL SYLVANIA CLEAR 85 72 63 SE5 30.09S HX 91 CLAXTON NOT AVBL THOMSON MOSUNNY 91 74 58 CALM 30.11S HX 100 AUGUSTA-BUSH SUNNY 89 70 53 SE5 30.05S HX 94 AUGUSTA-DANIEL SUNNY 92 68 45 SE9 30.07S HX 96 SWAINSBORO FAIR 91 73 55 SE14 30.08R HX 100 VIDALIA N/A 90 72 55 SE7 30.07R HX 96 ALMA SUNNY 90 71 53 E9 30.05S HX 96 WAYCROSS MOSUNNY 92 76 59 SE9 30.07R HX 104 JESUP N/A 88 75 66 SE7 30.08R HX 97 BRUNSWICK SUNNY 86 73 66 SE6 30.09R HX 93 SAINT SIMONS SUNNY 84 76 76 E10 30.08S HX 93 $$ SCZ027-028-034-036>038-045-046-048>050-GAZ119-141-310000- ...LAKE AND SUPPLEMENTAL COASTAL OBSERVATIONS... STATION/POSITION TIME TEMP WIND PRES WAVE SWELL AIR SEA DIR/SP/G HT/PER HT/PER/DIR (UTC) (F) (DEG/KT/KT) (MB) (FT/S) (FT/S/D) UPR LAKE MARION NOT AVBL WINYAH BAY 2300 83 120/ 8 1020.0S LAKE MURRAY 2300 90 130/ 5/ 9 1017.6S ACE BASIN NERRS 2300 85 140/ 3 1020.0S FORT PULASKI 2300 83 110/ 6/ 8 1019.3S SAPELO ISLAND 2300 85 100/ 6 1019.0F $$ ANZ835-935-AMZ111-154-330-350-352-354-374-450-454-472-310000- ...C-MAN AND BUOY OBSERVATIONS... STATION/POSITION TIME TEMP WIND PRES WAVE SWELL AIR SEA DIR/SP/G HT/PER HT/PER/DIR (UTC) (F) (DEG/KT/KT) (MB) (FT/S) (FT/S/D) FOLLY BEACH CMAN 2300 83 100/ 10/ 12 1020.0F BUOY 41004 2300 84 84 100/ 10/ 12 1019.2F 3/ 8 2/ 8 BUOY 41008 2300 83 85 110/ 10/ 14 1018.7F 2/ 7 2/110/ 7 5E ST. MARYS GA 2300 86 N/A 2/ 8 FRYING PAN BUOY NOT AVBL BUOY 41025 2300 81 160/ 8/ 10 1021.3F 3/ 8 3/130/ 8 CAPE LOOKOUT NC 2300 81 150/ 7/ 8 1020.8F BUOY 41002 2213 82 83 150/ 8/ 10 1021.6F 3/ 8 3/120/ 8 BUOY 41010 2300 83 85 130/ 10/ 12 1019.4R 3/10 3/100/10 BUOY 41012 NOT AVBL ST AUGUSTINE FL 2300 83 140/ 11/ 12 1019.1S CAPERS NEARSHORE 2200 84 110/ 12/ 14 N/A FRIPP NEARSHORE NOT AVBL $$

USA.gov is the U.S. government's official web portal to all federal, state and local government web resources and services.